Tracking 22454 objects as of 5-Mar-2021
HD Live streaming from Space Station
objects crossing your sky now

SL-12 DEB

Track SL-12 DEB now!
10-day predictions


NORAD ID: 41560
Int'l Code: 2008-067J
Perigee: 475.8 km
Apogee: 19,108.7 km
Inclination: 64.9 °
Period: 340.8 minutes
Semi major axis: 16163 km
RCS: Unknown
Launch date: December 25, 2008
Source: Commonwealth of Independent States (former USSR) (CIS)
Launch site: TYURATAM MISSILE AND SPACE COMPLEX (TTMTR)

Note: This is SATELLITE DEBRIS
aabbcc
Your satellite tracking list
Your tracking list is empty




NASA's NSSDC Master Catalog

Two Line Element Set (TLE):
1 41560U 08067J   21063.43757590  .00000312  00000-0  58709-3 0  9997
2 41560  64.9053 130.5108 5763980 339.9679   4.5275  4.22483177 76067
Source of the keplerian elements: AFSPC